�������l�o���
Date,Time,MP-1(��Sv/h),MP-2(��Sv/h),MP-3(��Sv/h),MP-4(��Sv/h),MP-5(��Sv/h),MP-6(��Sv/h),MP-7(��Sv/h),MP-8(��Sv/h),����,����(m/s),���J
2019/05/07,00:00,0.722,1.034,0.729,1.315,0.948,0.434,0.741,0.707,���k��,6.5,�L
2019/05/07,00:10,0.721,1.036,0.729,1.317,0.953,0.436,0.744,0.710,�k��,6.3,�L
2019/05/07,00:20,0.722,1.043,0.729,1.317,0.952,0.436,0.741,0.710,�k��,5.2,�L
2019/05/07,00:30,0.722,1.038,0.727,1.317,0.953,0.435,0.743,0.710,���k��,4.1,�L
2019/05/07,00:40,0.720,1.039,0.728,1.316,0.954,0.434,0.743,0.709,��,3.2,�L
2019/05/07,00:50,0.720,1.038,0.728,1.317,0.955,0.434,0.744,0.709,���k��,2.6,�L
2019/05/07,01:00,0.720,1.038,0.729,1.316,0.955,0.433,0.743,0.712,���k��,2.8,�L
2019/05/07,01:10,0.720,1.040,0.728,1.318,0.954,0.433,0.743,0.710,���k��,2.9,�L
2019/05/07,01:20,0.720,1.039,0.727,1.319,0.956,0.432,0.742,0.711,���k��,3.1,�L
2019/05/07,01:30,0.721,1.042,0.728,1.320,0.954,0.434,0.742,0.712,���k��,2.5,�L
2019/05/07,01:40,0.720,1.042,0.728,1.318,0.956,0.432,0.742,0.711,�k��,4.9,�L
2019/05/07,01:50,0.719,1.039,0.727,1.320,0.954,0.434,0.743,0.711,���k��,7.4,�L
2019/05/07,02:00,0.719,1.039,0.727,1.322,0.955,0.432,0.744,0.709,�k��,5.1,�L
2019/05/07,02:10,0.718,1.038,0.726,1.319,0.952,0.432,0.743,0.711,�k�k��,4.7,�L
2019/05/07,02:20,0.719,1.038,0.727,1.321,0.953,0.432,0.744,0.710,�k�k��,4.3,�L
2019/05/07,02:30,0.721,1.040,0.726,1.321,0.953,0.432,0.743,0.710,�k,3.3,�L
2019/05/07,02:40,0.720,1.038,0.726,1.323,0.954,0.433,0.745,0.710,�k�k��,3.2,�L
2019/05/07,02:50,0.720,1.037,0.727,1.320,0.954,0.432,0.745,0.711,�k,2.6,�L
2019/05/07,03:00,0.721,1.038,0.725,1.319,0.951,0.431,0.744,0.710,�k�k��,2.8,�L
2019/05/07,03:10,0.721,1.035,0.726,1.317,0.951,0.432,0.744,0.710,�k�k��,3.5,�L
2019/05/07,03:20,0.718,1.037,0.725,1.322,0.952,0.429,0.743,0.711,�k��,3.3,�L
2019/05/07,03:30,0.719,1.038,0.727,1.322,0.955,0.431,0.743,0.711,�k�k��,2.8,�L
2019/05/07,03:40,0.719,1.038,0.725,1.322,0.952,0.428,0.745,0.710,�k�k��,3.1,��
2019/05/07,03:50,0.718,1.039,0.726,1.322,0.955,0.430,0.744,0.711,�k��,4.6,��
2019/05/07,04:00,0.720,1.039,0.726,1.325,0.953,0.427,0.745,0.710,���k��,5.5,��
2019/05/07,04:10,0.718,1.039,0.725,1.323,0.955,0.429,0.746,0.710,���k��,6.5,��
2019/05/07,04:20,0.722,1.040,0.726,1.326,0.954,0.428,0.745,0.710,���k��,6.4,��
2019/05/07,04:30,0.721,1.039,0.725,1.325,0.957,0.428,0.747,0.711,���k��,6.6,��
2019/05/07,04:40,0.719,1.043,0.725,1.326,0.955,0.427,0.747,0.711,���k��,6.6,��
2019/05/07,04:50,0.720,1.042,0.725,1.329,0.957,0.428,0.744,0.712,�k��,5.9,��
2019/05/07,05:00,0.721,1.042,0.726,1.329,0.956,0.427,0.747,0.711,���k��,5.3,��
2019/05/07,05:10,0.719,1.043,0.725,1.330,0.956,0.429,0.745,0.713,���k��,4.5,��
2019/05/07,05:20,0.720,1.042,0.727,1.330,0.958,0.427,0.746,0.711,�k��,5.1,��
2019/05/07,05:30,0.720,1.041,0.727,1.330,0.958,0.429,0.745,0.712,�k��,5.9,��
2019/05/07,05:40,0.721,1.042,0.726,1.329,0.957,0.428,0.747,0.711,�k��,6.5,��
2019/05/07,05:50,0.719,1.044,0.727,1.332,0.959,0.427,0.747,0.713,�k�k��,5.4,��
2019/05/07,06:00,0.721,1.044,0.726,1.331,0.957,0.428,0.746,0.712,�k��,5.4,��
2019/05/07,06:10,0.722,1.044,0.727,1.333,0.958,0.427,0.747,0.712,�k�k��,6.7,��
2019/05/07,06:20,0.720,1.045,0.728,1.331,0.958,0.427,0.747,0.712,�k�k��,6.0,��
2019/05/07,06:30,0.722,1.044,0.726,1.333,0.959,0.427,0.745,0.712,�k�k��,5.7,��
2019/05/07,06:40,0.720,1.044,0.727,1.331,0.957,0.425,0.747,0.710,�k�k��,5.3,��
2019/05/07,06:50,0.721,1.045,0.727,1.335,0.960,0.426,0.745,0.714,�k�k��,4.4,��
2019/05/07,07:00,0.721,1.044,0.728,1.335,0.961,0.426,0.747,0.714,�k�k��,6.1,��
2019/05/07,07:10,0.723,1.044,0.730,1.338,0.962,0.427,0.747,0.714,�k�k��,6.5,��
2019/05/07,07:20,0.723,1.045,0.728,1.336,0.961,0.428,0.748,0.714,�k�k��,5.0,��
2019/05/07,07:30,0.725,1.047,0.729,1.337,0.963,0.429,0.748,0.713,�k�k��,5.0,��
2019/05/07,07:40,0.724,1.048,0.730,1.338,0.963,0.426,0.748,0.713,�k�k��,4.5,��
2019/05/07,07:50,0.726,1.048,0.731,1.338,0.963,0.426,0.751,0.715,�k�k��,5.3,��
2019/05/07,08:00,0.726,1.050,0.731,1.340,0.962,0.425,0.748,0.714,�k�k��,6.7,��
2019/05/07,08:10,0.726,1.049,0.732,1.338,0.964,0.424,0.751,0.713,�k�k��,5.8,��
2019/05/07,08:20,0.728,1.051,0.734,1.338,0.963,0.425,0.749,0.714,�k�k��,6.4,��
2019/05/07,08:30,0.724,1.051,0.731,1.339,0.963,0.425,0.749,0.713,�k,6.0,��
2019/05/07,08:40,0.726,1.049,0.730,1.344,0.965,0.425,0.750,0.711,�k,4.8,��
2019/05/07,08:50,0.726,1.051,0.731,1.342,0.965,0.425,0.749,0.713,�k,6.5,��
2019/05/07,09:00,0.727,1.052,0.732,1.340,0.966,0.426,0.751,0.712,�k,4.9,��
2019/05/07,09:10,0.725,1.052,0.735,1.343,0.967,0.426,0.751,0.713,�k�k��,5.6,��
2019/05/07,09:20,0.726,1.051,0.732,1.343,0.970,0.426,0.751,0.712,�k,4.0,��
2019/05/07,09:30,0.727,1.055,0.734,1.343,0.966,0.427,0.750,0.712,�k��,5.7,��
2019/05/07,09:40,0.726,1.057,0.733,1.346,0.968,0.425,0.752,0.712,�k��,6.5,��
2019/05/07,09:50,0.728,1.057,0.732,1.344,0.971,0.427,0.751,0.714,�k�k��,6.1,��
2019/05/07,10:00,0.730,1.056,0.733,1.346,0.973,0.427,0.753,0.714,�k��,7.0,��
2019/05/07,10:10,0.730,1.057,0.736,1.345,0.970,0.427,0.754,0.713,�k��,5.9,��
2019/05/07,10:20,0.729,1.058,0.735,1.347,0.972,0.426,0.753,0.714,�k��,6.2,��
2019/05/07,10:30,0.728,1.059,0.733,1.348,0.974,0.426,0.752,0.715,�k��,7.3,��
2019/05/07,10:40,0.732,1.059,0.733,1.348,0.976,0.425,0.754,0.715,�k��,8.2,��
2019/05/07,10:50,0.730,1.061,0.736,1.350,0.976,0.428,0.755,0.714,�k�k��,8.5,��
2019/05/07,11:00,0.730,1.060,0.738,1.348,0.977,0.428,0.754,0.716,�k��,7.5,��
2019/05/07,11:10,0.731,1.061,0.735,1.348,0.978,0.427,0.756,0.715,�k��,7.7,��
2019/05/07,11:20,0.732,1.062,0.736,1.349,0.976,0.427,0.757,0.716,�k��,8.1,��
2019/05/07,11:30,0.734,1.064,0.737,1.350,0.978,0.427,0.754,0.716,�k��,10.3,��
2019/05/07,11:40,0.732,1.065,0.738,1.353,0.981,0.427,0.755,0.716,�k��,6.8,��
2019/05/07,11:50,0.732,1.064,0.736,1.353,0.981,0.427,0.755,0.717,�k�k��,8.8,��
2019/05/07,12:00,0.732,1.067,0.737,1.349,0.978,0.429,0.755,0.716,�k��,8.0,��
2019/05/07,12:10,0.734,1.073,0.738,1.352,0.982,0.428,0.756,0.716,�k��,9.2,��
2019/05/07,12:20,0.733,1.070,0.737,1.353,0.981,0.428,0.755,0.717,�k��,9.8,��
2019/05/07,12:30,0.734,1.070,0.740,1.353,0.982,0.428,0.756,0.716,�k��,10.9,��
2019/05/07,12:40,0.738,1.069,0.740,1.353,0.982,0.427,0.756,0.717,�k��,8.8,��
2019/05/07,12:50,0.736,1.073,0.739,1.353,0.982,0.429,0.756,0.717,�k��,8.8,��
2019/05/07,13:00,0.737,1.073,0.739,1.357,0.984,0.429,0.756,0.717,�k��,10.5,��
2019/05/07,13:10,0.737,1.073,0.739,1.357,0.984,0.430,0.757,0.716,�k��,8.8,��
2019/05/07,13:20,0.738,1.073,0.739,1.355,0.985,0.429,0.756,0.717,�k��,7.9,��
2019/05/07,13:30,0.738,1.075,0.738,1.357,0.985,0.430,0.756,0.717,�k��,10.9,��
2019/05/07,13:40,0.734,1.072,0.740,1.358,0.987,0.431,0.758,0.717,�k�k��,10.5,��
2019/05/07,13:50,0.739,1.074,0.742,1.362,0.986,0.431,0.758,0.718,�k��,8.0,��
2019/05/07,14:00,0.737,1.075,0.742,1.358,0.989,0.431,0.758,0.716,�k��,11.1,��
2019/05/07,14:10,0.738,1.075,0.740,1.360,0.987,0.431,0.755,0.717,�k��,9.7,��
2019/05/07,14:20,0.737,1.076,0.741,1.358,0.989,0.430,0.758,0.719,�k��,11.8,��
2019/05/07,14:30,0.739,1.076,0.743,1.361,0.989,0.431,0.758,0.718,�k��,8.4,��
2019/05/07,14:40,0.740,1.077,0.743,1.363,0.990,0.430,0.757,0.718,�k��,10.2,��
2019/05/07,14:50,0.741,1.077,0.742,1.364,0.991,0.431,0.758,0.718,�k�k��,7.9,��
2019/05/07,15:00,0.741,1.076,0.744,1.363,0.989,0.430,0.759,0.718,�k��,9.2,��
2019/05/07,15:10,0.740,1.080,0.744,1.362,0.986,0.431,0.758,0.720,�k��,10.5,��
2019/05/07,15:20,0.737,1.078,0.744,1.366,0.989,0.431,0.759,0.718,�k��,10.2,��
2019/05/07,15:30,0.739,1.080,0.744,1.365,0.990,0.430,0.758,0.719,�k��,9.1,��
2019/05/07,15:40,0.739,1.079,0.745,1.366,0.989,0.432,0.759,0.717,�k��,7.6,��
2019/05/07,15:50,0.738,1.081,0.743,1.364,0.990,0.430,0.759,0.718,�k�k��,8.2,��
2019/05/07,16:00,0.740,1.081,0.742,1.364,0.991,0.431,0.758,0.718,�k��,10.6,��
2019/05/07,16:10,0.740,1.079,0.744,1.365,0.989,0.429,0.758,0.718,�k��,7.4,��
2019/05/07,16:20,0.740,1.081,0.743,1.364,0.989,0.431,0.758,0.719,�k�k��,9.1,��
2019/05/07,16:30,0.740,1.081,0.744,1.366,0.991,0.432,0.759,0.718,�k�k��,9.9,��
2019/05/07,16:40,0.739,1.080,0.744,1.367,0.993,0.432,0.759,0.719,�k�k��,8.4,��
2019/05/07,16:50,0.740,1.082,0.746,1.365,0.991,0.430,0.759,0.720,�k�k��,9.3,��
2019/05/07,17:00,0.740,1.083,0.743,1.368,0.992,0.430,0.758,0.719,�k�k��,7.9,��
2019/05/07,17:10,0.739,1.083,0.747,1.368,0.992,0.432,0.758,0.719,�k�k��,8.9,��
2019/05/07,17:20,0.738,1.087,0.745,1.368,0.990,0.431,0.758,0.719,�k�k��,7.8,��
2019/05/07,17:30,0.740,1.085,0.744,1.367,0.992,0.431,0.758,0.720,�k�k��,9.0,��
2019/05/07,17:40,0.739,1.087,0.745,1.370,0.990,0.433,0.758,0.722,�k��,8.5,��
2019/05/07,17:50,0.738,1.087,0.745,1.368,0.990,0.431,0.757,0.722,�k�k��,7.3,��
2019/05/07,18:00,0.741,1.085,0.745,1.369,0.989,0.431,0.757,0.721,�k�k��,6.1,��
2019/05/07,18:10,0.742,1.088,0.745,1.372,0.990,0.433,0.758,0.721,�k�k��,5.3,��
2019/05/07,18:20,0.741,1.085,0.747,1.370,0.992,0.431,0.757,0.721,�k�k��,5.5,��
2019/05/07,18:30,0.740,1.085,0.745,1.370,0.993,0.432,0.758,0.722,�k�k��,5.9,��
2019/05/07,18:40,0.741,1.087,0.749,1.371,0.995,0.431,0.760,0.723,�k��,6.3,��
2019/05/07,18:50,0.743,1.087,0.746,1.372,0.994,0.430,0.758,0.721,�k�k��,6.3,��
2019/05/07,19:00,0.739,1.085,0.745,1.370,0.994,0.431,0.757,0.721,�k�k��,5.6,��
2019/05/07,19:10,0.741,1.084,0.746,1.373,0.992,0.430,0.758,0.721,�k�k��,5.8,��
2019/05/07,19:20,0.742,1.087,0.748,1.373,0.994,0.431,0.757,0.721,�k�k��,5.4,��
2019/05/07,19:30,0.741,1.085,0.747,1.373,0.992,0.430,0.757,0.720,�k��,5.3,��
2019/05/07,19:40,0.742,1.084,0.746,1.372,0.995,0.430,0.758,0.720,���k��,5.2,��
2019/05/07,19:50,0.742,1.084,0.747,1.373,0.995,0.430,0.758,0.720,���k��,4.9,��
2019/05/07,20:00,0.740,1.085,0.747,1.374,0.994,0.430,0.760,0.719,���k��,4.4,��
2019/05/07,20:10,0.741,1.083,0.746,1.371,0.992,0.429,0.760,0.720,���k��,4.8,��
2019/05/07,20:20,0.740,1.084,0.746,1.374,0.994,0.431,0.759,0.720,��,4.9,��
2019/05/07,20:30,0.741,1.084,0.747,1.371,0.993,0.431,0.759,0.721,���k��,5.8,��
2019/05/07,20:40,0.738,1.083,0.747,1.372,0.995,0.430,0.758,0.720,��,3.6,��
2019/05/07,20:50,0.740,1.084,0.747,1.373,0.993,0.432,0.758,0.719,���쐼,3.3,��
2019/05/07,21:00,0.741,1.085,0.747,1.371,0.994,0.431,0.761,0.720,���쐼,3.4,��
2019/05/07,21:10,0.742,1.084,0.747,1.373,0.993,0.431,0.760,0.720,���쐼,4.5,��
2019/05/07,21:20,0.741,1.085,0.749,1.370,0.994,0.430,0.760,0.720,���쐼,5.0,��
2019/05/07,21:30,0.741,1.084,0.747,1.370,0.994,0.432,0.758,0.721,���쐼,5.5,��
2019/05/07,21:40,0.738,1.084,0.746,1.373,0.993,0.431,0.758,0.720,���쐼,5.1,��
2019/05/07,21:50,0.741,1.084,0.747,1.374,0.994,0.431,0.759,0.721,��,4.0,��
2019/05/07,22:00,0.741,1.083,0.744,1.372,0.993,0.431,0.760,0.721,���k��,5.1,��
2019/05/07,22:10,0.740,1.083,0.747,1.372,0.992,0.429,0.759,0.720,���k��,4.9,��
2019/05/07,22:20,0.740,1.083,0.747,1.373,0.993,0.432,0.758,0.719,���k��,4.3,��
2019/05/07,22:30,0.739,1.081,0.745,1.371,0.990,0.431,0.759,0.720,���k��,3.3,��
2019/05/07,22:40,0.740,1.083,0.746,1.371,0.994,0.431,0.760,0.719,���k��,1.7,��
2019/05/07,22:50,0.740,1.081,0.747,1.372,0.994,0.432,0.760,0.721,���k��,0.9,��
2019/05/07,23:00,0.739,1.085,0.746,1.372,0.993,0.430,0.760,0.720,���k��,1.7,��
2019/05/07,23:10,0.738,1.082,0.749,1.369,0.994,0.433,0.760,0.722,���k��,2.4,��
2019/05/07,23:20,0.739,1.084,0.747,1.373,0.993,0.432,0.760,0.721,���쐼,1.8,��
2019/05/07,23:30,0.740,1.082,0.746,1.371,0.993,0.430,0.759,0.719,��,3.8,��
2019/05/07,23:40,0.739,1.084,0.745,1.371,0.994,0.430,0.759,0.719,��,3.3,��
2019/05/07,23:50,0.742,1.081,0.747,1.372,0.994,0.432,0.759,0.719,���k��,3.3,��
